Location: West Cummington
(42.4920°N, 72.9680°W)
Time: 03:28:31
(UTC-05:00)

Daily predictions for brighter satellites

Satellite Brightness Start Highest point End
(mag) Time Altitude Azimuth Time Altitude Azimuth Time Altitude Azimuth
NOSS 3-1 (C) 4.3 03:51:43 62° NE 03:52:01 62° NE 04:00:13 10° SE
Cosmos 2233 Rocket 4.4 04:08:33 61° E 04:08:33 61° E 04:14:45 10° NNE
SL-16 R/B 4.5 04:19:31 12° S 04:19:31 12° S 04:19:58 10° S
Cosmos 2297 Rocket 4.3 04:22:20 16° N 04:22:20 16° N 04:23:28 10° NNE
SeaSat 1 3.3 04:25:54 10° NNE 04:29:11 42° NE 04:29:11 42° NE
Cosmos 2227 Rocket 4.4 04:36:01 13° N 04:36:01 13° N 04:36:39 10° N
DELTA 2 R/B (1) 4.0 04:37:58 51° SSE 04:37:58 51° SSE 04:43:20 10° E
SL-8 R/B 4.3 04:39:14 54° ESE 04:39:14 54° ESE 04:42:57 10° ESE
Cosmos 2221 3.8 04:36:23 10° SSE 04:40:24 40° E 04:44:26 10° NNE
SKYMED 2 4.4 04:40:08 10° SSE 04:44:18 49° ENE 04:45:18 40° NNE
Meteor 1-16 Rocket 4.0 04:45:20 44° S 04:47:07 86° E 04:52:27 10° N
Cosmos 1943 4.1 04:48:52 19° N 04:52:45 47° ENE 04:58:12 10° SE
Meteor 1-11 4.1 04:58:42 20° NNW 05:02:53 78° W 05:08:40 10° S
Gbstr 26 Del rocket 4.5 05:00:52 22° SSW 05:04:03 48° SE 05:10:09 10° ENE
NOSS 3-1 (A) 4.0 05:01:07 35° NW 05:04:47 72° WSW 05:13:07 10° SSE
Cosmos 773 Rocket 3.9 05:05:08 61° WNW 05:05:40 65° WSW 05:10:55 10° S
Cosmos 1464 Rocket 4.1 05:00:01 10° S 05:06:20 78° E 05:12:35 10° N
Cosmos 1184 Rocket 3.9 05:10:07 33° NNE 05:11:05 44° ENE 05:14:16 10° SSE
Cosmos 2263 Rocket 3.4 05:06:13 10° S 05:11:33 43° ESE 05:16:54 10° NE
ATLAS 2AS CENTAUR R/B 3.7 05:06:19 14° NNW 05:13:16 50° NE 05:20:39 10° ESE
CZ-3 Stage 3 3.7 05:12:39 18° SSW 05:14:51 24° S 05:23:45 10° ESE
Feng Yun 1-1 Rocket 4.4 05:12:12 10° N 05:17:24 45° WNW 05:18:20 41° W
Cosmos 1603 3.8 05:17:39 42° WNW 05:19:00 52° WSW 05:24:28 10° S
Cosmos 2112 Rocket 4.2 05:15:20 15° NNW 05:19:48 76° ENE 05:25:09 10° SSE
Cosmos 1340 Rocket 3.9 05:21:34 29° SSW 05:21:34 29° SSW 05:23:45 10° S
Cosmos 389 Rocket 3.6 05:22:55 10° S 05:26:27 47° E 05:30:00 10° NNE
Coronas F rocket 2.5 05:26:39 36° E 05:26:39 36° E 05:28:54 10° SSE
CSL-04 Rocket 4.1 05:22:44 10° NNE 05:27:59 61° ESE 05:33:12 10° S
Cosmos 1072 Rocket 4.4 05:22:30 10° SSW 05:28:37 65° W 05:34:42 10° N
USA 234 4.2 05:24:40 10° E 05:30:38 40° NNE 05:35:30 15° NW
NOAA 6 4.1 05:25:40 10° N 05:30:41 50° WNW 05:35:41 10° SW
CZ-2C R/B 4.2 05:27:44 10° NNE 05:31:49 31° E 05:35:52 10° SSE
COSMO-SKYMED 1 2.7 05:28:07 10° S 05:32:19 49° W 05:33:54 33° NW
Cosmos 1805 Rocket 3.4 05:30:14 13° NNW 05:34:03 66° W 05:38:22 10° S
EP 2 4.5 05:35:55 58° NNE 05:35:55 58° NNE 05:38:17 10° NNE
Cosmos 2058 3.8 05:38:10 30° WSW 05:38:10 30° WSW 05:40:59 10° SSW
Cosmos 1908 3.6 05:34:11 10° S 05:37:57 64° E 05:41:46 10° NNE
Cosmos 1777 Rocket 4.5 05:37:20 30° W 05:38:50 36° WNW 05:43:38 10° N
Meteor 2-1 Rocket 4.3 05:35:00 10° SSW 05:40:30 53° WNW 05:46:10 10° N
APEX 3.5 05:37:05 10° SSW 05:40:46 57° ESE 05:43:48 10° NE
Sich 1 2.9 05:43:54 10° NNW 05:48:15 72° W 05:52:31 10° S
Cosmos 292 Rocket 4.3 05:49:58 22° NW 05:52:23 36° WSW 05:56:46 10° SSW
OPS 8737 4.1 05:52:52 11° SW 05:56:05 70° NW 05:59:15 10° NNE
Cosmos 2228 Rocket 3.2 05:52:00 10° S 05:56:24 79° E 06:00:49 10° N
Cosmos 1356 Rocket 4.0 05:55:01 17° NW 05:57:43 35° W 06:01:32 10° SSW
Cosmos 1633 Rocket 3.0 05:53:26 10° NNW 05:57:46 65° W 06:02:02 10° S
SMAP 4.0 05:55:10 10° NNE 05:59:44 52° E 06:04:16 10° S
Cosmos 1328 Rocket 3.6 05:55:59 10° S 06:00:20 83° E 06:04:44 10° N
Tiangong 2 1.0 05:59:08 25° WSW 06:00:47 82° S 06:03:56 10° E
YAOGAN 3 4.5 05:57:01 10° N 06:01:22 73° WNW 06:05:42 10° SSW
PSLV R/B 3.5 05:59:57 24° W 06:01:48 61° S 06:05:08 10° ESE
Cosmos 1626 2.8 05:59:38 15° NNW 06:02:12 33° W 06:05:35 10° SSW
IRS-1A Rocket 4.5 05:56:40 10° NNE 06:02:36 82° ESE 06:08:22 10° SSW
Cosmos 1151 Rocket 4.4 05:58:59 10° SSE 06:03:01 42° E 06:07:03 10° NNE
SeaSat 1 3.9 06:04:39 10° N 06:07:49 17° NW 06:09:00 16° WNW
Helios 1B rocket 3.3 06:06:29 10° SSE 06:10:27 52° ENE 06:14:28 10° N
Ariane Rocket 3.3 06:06:46 10° N 06:11:37 44° WNW 06:16:26 10° SW
Cosmos 1515 Rocket 3.7 06:08:17 10° S 06:12:43 84° E 06:17:11 10° N
Cosmos 858 Rocket 4.5 06:08:53 10° SSW 06:14:03 90° SW 06:19:18 10° NNE
Meteor 1-28 Rocket 4.4 06:11:42 10° SSW 06:14:40 22° W 06:17:07 13° NW
Cosmos 2221 3.9 06:15:14 10° WSW 06:18:10 18° WNW 06:21:06 10° NNW
Nadezhda 4 Rocket 4.2 06:13:21 10° NNW 06:19:29 53° W 06:25:31 10° SSW
Cosmos 990 Rocket 4.4 06:16:15 10° S 06:21:22 68° ESE 06:26:34 10° NNE
Meteor 1-29 3.9 06:19:20 10° SSE 06:22:44 51° ENE 06:26:09 10° N
Cosmos 2026 Rocket 4.3 06:16:56 10° N 06:23:00 69° E 06:29:03 10° SSE
AQUARIUS 4.2 06:18:29 10° NNE 06:23:00 88° WNW 06:27:31 10° SSW
YAOGAN 1 2.7 06:18:46 10° NNE 06:23:08 80° ESE 06:27:27 10° S
DELTA 2 R/B (1) 3.8 06:18:45 10° W 06:24:09 66° S 06:29:40 10° ESE
Cosmos 2034 Rocket 4.5 06:18:47 10° SW 06:24:25 36° WNW 06:30:10 10° N
CZ-4 R/B 1.4 06:20:45 10° N 06:24:49 64° WNW 06:28:55 10° SSW
Cosmos 192 4.4 06:21:33 10° NNW 06:26:27 60° WSW 06:31:19 10° S
Cosmos 1898 Rocket 3.5 06:22:20 10° SSW 06:27:32 61° WNW 06:32:49 10° NNE
SJ-12 3.9 06:23:40 10° N 06:27:41 57° WNW 06:31:40 10° SSW
Meteor 2-2 Rocket 4.3 06:24:41 10° SSW 06:30:30 74° W 06:36:14 10° N
PAYLOAD A 4.2 06:28:05 10° N 06:32:47 43° WNW 06:37:17 10° SW
IDEFIX/ARIANE 42P 2.6 06:28:11 10° N 06:33:26 65° WNW 06:38:38 10° SSW
CORIOLIS 4.3 06:28:20 10° NNE 06:33:47 89° ESE 06:39:14 10° SSW
Cosmos 2344 3.7 06:27:24 10° SW 06:35:02 65° NW 06:43:52 10° NNE
Cosmos 1943 4.2 06:31:52 10° NW 06:36:28 26° WSW 06:41:04 10° SSW
Cosmos 1092 Rocket 4.2 06:35:16 10° NNW 06:41:16 49° W 06:47:11 10° SSW
Cosmos 2150 Rocket 4.2 06:36:28 10° SW 06:41:48 56° WNW 06:47:04 10° NNE
Cosmos 1933 Rocket 4.0 06:40:46 10° NNW 06:44:59 43° W 06:49:10 10° SSW
